Tracking 29892 objects as of 21-Nov-2024
HD Live streaming from Space Station
objects crossing your sky now

STARLINK-4132

Track STARLINK-4132 now!
10-day predictions
STARLINK-4132 is classified as:


NORAD ID: 53252
Int'l Code: 2022-086L
Perigee: 545.8 km
Apogee: 548.0 km
Inclination: 53.2 °
Period: 95.4 minutes
Semi major axis: 6917 km
RCS: Unknown
Launch date: July 24, 2022
Source: United States (US)
Launch site: AIR FORCE EASTERN TEST RANGE (AFETR)
Your satellite tracking list
Your tracking list is empty




NASA's NSSDC Master Catalog

Two Line Element Set (TLE):
1 53252U 22086L   24324.83087215 -.00000989  00000-0 -44024-4 0  9990
2 53252  53.2165 165.7956 0001587  80.4410 279.6762 15.08845225129391
Source of the keplerian elements: AFSPC